Dewpoint
38 38 38 40 40 40 39 39 38 37 37 37 35 35 38 39 40 41 40 41 37 32 31 30 29 27 27 27 24 24 25 23 25 21 20 19 18 21 20 17 16 16 20 19 20 18 13 19 18 15 19 24 23 24
38 39 39 41 41 41 40 39 38 38 37 36 36 35 35 35 36 38 37 41 42 35 33 35 35 33 31 28 28 29 26 22 27 25 25 25 22 23 20 15 17 14 18 20 22 20 22 24 22 26 27 26 27 27
38 39 39 39 40 40 40 39 38 38 38 38 37 36 37 37 36 35 36 37 36 32 29 29 27 31 35 35 34 28 30 29 27 28 27 25 20 21 15 13 14 17 21 22 21 21 23 25 25 26 26 28 28 28
38 38 37 38 39 38 38 38 38 38 39 39 38 38 38 38 38 37 35 35 35 32 24 23 27 28 31 34 35 34 32 31 31 32 29 26 22 25 20 20 21 22 21 21 22 23 23 24 25 28 29 29 29 28
37 37 38 36 38 38 37 36 36 36 36 36 37 38 38 39 39 40 40 37 33 30 22 24 27 25 27 29 32 34 33 31 31 28 28 25 26 26 27 25 23 22 21 22 22 23 25 26 28 28 29 29 29 29
37 37 37 36 36 35 34 34 32 32 34 34 34 33 33 34 36 38 32 32 37 35 30 22 28 26 28 28 27 30 32 31 30 30 28 28 25 27 24 19 20 21 24 26 25 26 27 28 29 30 30 30 31 32
35 35 35 35 34 33 32 33 33 33 33 34 34 34 34 33 37 34 27 30 39 38 30 22 24 27 28 31 30 29 30 32 30 29 28 27 26 30 28 22 21 23 25 27 29 30 31 31 32 34 34 35 36 34
35 35 34 34 34 33 32 34 33 32 34 34 34 34 34 34 35 33 34 39 39 35 31 23 22 23 30 28 28 34 30 31 32 30 32 28 29 29 24 22 24 27 30 32 32 33 33 33 31 30 30 30 32 34
35 35 34 34 33 32 32 32 33 32 32 32 33 35 36 35 33 30 35 37 40 35 26 22 20 18 29 30 31 32 33 28 32 29 29 32 29 25 25 26 27 29 31 32 32 32 29 28 28 31 32 32 31 31
35 34 34 33 32 31 32 32 32 31 32 32 35 32 25 32 35 34 36 31 30 31 30 23 22 20 28 28 28 28 30 27 24 27 31 28 23 25 26 27 30 33 33 33 31 29 30 29 30 31 33 35 35 34
35 34 34 33 32 31 31 31 32 32 31 33 30 27 32 36 36 33 28 27 27 24 27 25 24 21 27 24 25 29 26 26 23 24 25 24 23 27 29 33 34 33 33 31 30 30 31 31 32 32 32 34 34 35
34 34 33 32 32 32 32 33 33 34 32 31 32 32 31 29 27 26 26 28 23 19 26 25 25 24 26 29 26 27 25 26 19 28 25 21 28 28 32 32 32 32 31 30 30 30 32 32 33 32 32 32 33 33
33 32 32 32 32 32 32 32 32 35 35 33 28 25 23 21 19 19 16 23 25 27 27 28 27 29 29 30 29 29 25 22 27 25 21 25 27 28 30 32 32 32 31 31 31 32 32 31 32 32 31 32 32 32
32 31 31 31 32 32 31 32 32 33 35 26 21 13 17 14 17 19 21 24 26 26 28 29 29 28 30 29 29 25 25 25 21 19 19 26 26 29 32 32 32 30 31 31 32 32 32 32 32 32 32 32 32 32
31 31 31 32 32 31 32 33 34 36 31 23 22 12 16 19 23 26 27 28 28 28 28 28 29 29 28 28 27 25 22 19 20 21 25 28 27 32 32 31 30 31 32 32 32 32 32 32 32 32 32 32 32 32
32 32 30 32 31 32 34 35 36 35 30 25 22 18 23 23 22 22 26 26 26 28 28 29 27 25 25 26 24 21 19 17 22 27 29 29 30 32 31 31 32 32 33 32 32 32 32 32 32 32 32 32 32 32
32 29 32 32 32 34 35 35 33 27 22 20 21 23 23 22 21 23 23 22 28 22 21 24 22 23 28 24 23 26 23 26 27 28 28 28 30 31 32 31 33 34 33 32 31 31 31 33 33 33 32 32 32 32
30 31 33 34 35 35 34 32 27 25 20 21 19 19 22 25 23 23 24 25 24 21 23 18 25 21 21 18 19 26 27 28 28 28 29 29 29 31 31 31 31 33 33 32 31 30 30 30 31 32 33 33 33 32
29 30 31 34 31 28 24 26 25 16 18 21 23 23 23 24 25 24 24 23 23 24 25 23 18 18 18 23 25 25 26 27 27 26 28 28 29 32 32 31 31 32 32 32 32 31 30 30 30 31 32 33 32 32
30 30 30 33 31 27 21 20 27 20 17 19 22 21 22 23 24 25 25 24 24 23 23 20 19 20 22 23 24 24 25 28 28 26 27 29 30 31 32 32 30 31 32 32 32 31 29 29 31 31 31 32 32 32
30 29 30 32 32 28 24 21 20 20 21 19 21 21 20 22 21 20 18 21 20 17 13 16 17 20 24 25 27 27 27 27 28 28 28 28 30 30 32 33 32 33 30 31 31 30 29 30 31 32 32 32 32 32
28 30 29 30 26 26 24 25 22 19 16 16 16 16 14 13 13 14 17 15 14 15 19 21 23 23 23 22 23 24 25 25 26 26 27 29 29 29 31 32 33 32 32 32 31 30 30 31 32 31 32 32 32 32
30 28 26 26 19 17 13 23 18 17 12 12 16 13 14 16 17 19 15 17 19 20 20 19 18 19 19 20 21 23 23 23 25 27 28 29 30 31 31 32 33 31 30 32 32 30 31 32 32 32 32 31 32 32
31 25 18 19 16 5 15 16 19 17 15 13 11 9 12 15 19 17 14 16 17 17 16 16 17 16 17 17 17 20 22 23 23 24 25 26 29 31 31 32 32 32 33 32 32 31 31 32 31 31 31 30 30 30
17 13 15 9 17 10 10 9 11 14 6 10 8 8 12 17 12 12 10 15 16 14 14 15 16 16 16 17 17 18 19 22 21 21 23 25 28 30 31 31 32 33 33 32 31 31 31 32 31 32 31 31 29 29
6 3 12 9 6 9 8 0 1 5 7 6 10 13 19 14 9 8 12 13 14 14 14 15 15 15 14 15 15 16 17 19 20 19 20 23 27 31 31 30 30 31 33 32 31 30 30 30 30 30 31 30 29 30
0 1 11 16 19 17 13 13 14 15 11 10 12 12 12 5 1 8 12 15 14 15 16 17 17 17 15 15 16 16 17 18 18 19 22 23 29 32 33 32 30 31 32 32 31 30 29 29 29 30 30 31 30 30
12 8 2 6 12 14 2 4 1 3 9 15 13 3 3 1 2 8 12 15 16 16 16 17 17 18 18 17 18 18 18 20 22 22 24 25 30 34 34 33 30 30 32 32 32 31 30 30 30 30 30 30 30 32
13 14 11 -1 1 5 6 7 6 13 18 16 11 4 7 10 11 11 13 14 15 14 11 13 15 17 16 17 19 19 19 21 19 24 25 26 27 28 31 30 30 31 32 32 30 30 31 31 31 31 31 31 32 32
10 15 8 -3 -1 3 6 14 14 16 17 16 15 12 10 11 12 12 12 11 10 9 10 13 15 15 14 14 13 14 18 20 19 19 29 28 28 30 30 30 30 31 32 32 31 30 29 30 30 31 30 30 31 31
7 8 10 10 3 6 10 10 15 17 16 13 9 8 7 7 10 10 10 9 7 7 10 11 11 13 12 12 12 11 11 16 18 19 26 30 31 31 31 31 32 32 32 31 31 30 30 30 31 30 30 30 29 30
-4 2 1 1 1 6 13 10 15 14 12 12 8 7 6 4 3 6 9 8 7 8 6 9 10 11 13 13 15 15 15 16 16 17 18 23 24 26 28 28 30 32 32 31 32 32 32 32 32 31 31 31 30 30
-4 -2 -2 0 -0 4 5 8 14 10 10 9 8 6 2 1 -1 7 7 6 8 9 9 10 12 12 12 12 13 13 14 15 16 17 17 17 18 21 22 25 26 27 27 27 28 29 28 28 28 29 28 26 24 22
Lifted_Index
14 14 14 14 14 14 14 14 15 15 15 15 15 15 14 14 14 13 13 13 12 12 11 11 11 10 10 10 10 9 8 8 8 7 7 6 5 5 4 4 4 3 3 3 3 2 2 2 3 2 3 3 3 3
14 14 14 14 13 13 14 14 15 15 15 14 15 15 14 14 14 14 13 13 13 12 12 11 11 10 10 10 10 9 8 8 8 7 7 6 6 5 5 5 4 4 4 3 3 3 3 3 3 3 3 3 3 4
14 14 14 14 13 13 13 14 14 14 14 14 14 14 14 14 14 14 14 14 14 13 12 11 11 11 11 11 10 9 9 8 8 8 8 7 6 6 6 6 5 5 4 3 3 3 3 3 3 3 3 3 4 4
14 14 14 14 13 13 14 14 14 14 14 13 13 13 13 14 14 14 14 14 15 14 12 11 11 11 11 11 10 10 9 9 8 8 8 7 7 6 6 6 5 4 4 3 3 3 4 3 3 3 3 3 4 4
13 13 13 14 14 14 14 15 15 14 14 14 13 13 13 13 14 14 14 14 14 14 12 10 10 10 10 10 10 10 9 9 9 8 7 6 6 7 7 6 5 4 3 3 3 4 4 4 3 3 3 3 3 3
13 13 13 14 14 15 15 15 15 15 15 14 14 14 14 14 14 14 14 14 14 13 12 10 10 9 8 8 9 9 9 9 8 7 7 6 6 7 7 5 4 3 3 3 3 4 4 4 3 3 3 3 3 3
13 13 13 14 14 15 15 15 15 15 15 14 14 14 14 14 14 14 14 13 13 13 12 11 9 8 8 7 8 8 8 8 7 7 6 6 6 6 6 4 3 3 3 3 3 4 4 3 3 3 3 4 3 3
13 13 13 13 14 14 14 14 14 14 14 14 14 14 14 14 14 14 14 13 12 12 12 10 8 8 8 8 7 7 7 6 6 6 5 5 5 5 4 3 3 3 2 2 3 3 3 3 3 4 4 4 3 3
12 12 13 13 13 14 14 14 14 14 14 14 14 13 13 13 13 14 13 13 12 12 11 10 8 7 8 8 7 6 6 5 5 5 4 4 4 4 4 3 2 2 2 2 2 3 3 3 3 4 4 4 3 3
12 12 12 13 13 13 14 14 14 14 14 14 13 13 13 13 13 12 12 11 11 11 10 9 7 7 8 7 6 6 5 5 4 4 4 3 3 3 3 2 1 1 1 2 2 3 3 3 3 3 4 4 3 3
11 11 12 12 13 13 13 13 13 13 13 13 13 13 12 12 11 10 9 9 9 9 8 7 7 7 7 6 6 5 5 4 4 3 3 3 3 2 2 2 1 1 2 2 3 3 3 3 4 4 4 3 3 3
11 11 12 12 12 12 13 13 13 13 13 13 12 12 12 11 10 8 7 7 6 6 6 6 6 6 6 5 4 4 4 3 3 3 2 2 2 2 2 2 2 3 3 2 2 3 3 4 4 4 4 3 3 3
11 11 11 12 12 12 12 12 12 12 12 12 12 11 10 9 8 7 6 5 5 5 5 5 5 4 4 3 3 3 3 3 3 2 2 2 2 2 2 2 3 3 3 2 2 3 3 3 4 4 3 3 4 4
11 11 11 11 11 11 12 12 11 11 11 11 10 9 9 8 7 7 6 5 5 5 5 5 4 3 3 2 2 2 2 2 2 2 1 1 2 2 2 3 3 3 3 2 2 3 3 3 3 3 3 3 4 4
10 10 11 11 11 11 11 11 10 10 10 10 10 8 8 7 7 6 6 5 5 5 5 4 4 3 2 2 2 1 2 2 2 1 1 1 1 2 3 3 3 3 3 2 2 3 3 3 3 3 3 4 4 4
10 10 10 10 10 10 10 10 10 10 10 10 9 8 7 7 7 6 6 6 6 5 5 4 3 3 2 2 1 1 1 1 1 1 1 1 1 2 2 3 3 3 3 3 3 3 3 3 4 4 4 4 4 4
9 9 9 9 9 9 9 9 9 9 9 9 9 8 7 7 7 6 6 6 7 6 5 5 4 3 2 2 1 1 1 1 2 2 2 2 2 2 2 3 3 3 3 3 3 3 3 3 4 4 4 4 5 4
8 8 8 8 8 8 8 8 8 8 9 9 8 8 8 8 7 7 7 7 7 7 6 5 4 4 3 2 2 2 1 2 2 2 2 2 2 2 2 3 3 4 3 3 3 3 3 3 3 4 4 4 4 4
8 8 8 8 8 8 8 8 8 8 9 9 8 8 8 8 8 8 8 8 7 7 6 6 5 5 4 4 3 3 3 3 3 3 3 3 2 2 2 3 3 4 4 3 3 3 3 3 3 4 4 4 4 4
8 8 8 8 8 8 8 8 9 9 8 8 8 8 8 8 8 8 7 7 7 7 7 6 6 6 6 5 5 5 5 5 5 4 4 3 3 3 3 3 3 3 4 3 3 3 3 2 3 3 4 4 4 4
8 8 8 8 8 8 8 9 9 9 8 8 8 8 8 8 8 8 7 7 7 7 7 7 7 7 7 7 7 6 6 6 6 6 5 4 4 4 3 3 3 3 4 4 4 3 3 3 3 3 4 5 5 5
7 7 8 8 8 8 8 9 8 8 8 8 8 8 8 8 8 8 8 8 8 8 8 8 8 8 8 8 7 7 7 7 7 7 6 6 5 4 4 3 3 3 3 4 4 4 4 4 3 4 4 5 6 6
7 7 8 8 8 8 8 8 8 8 8 8 8 8 8 8 8 8 8 7 8 8 8 8 8 8 8 8 8 8 8 8 8 7 7 6 6 5 4 3 3 2 3 3 4 4 4 5 5 5 5 5 6 6
7 7 8 8 8 8 8 8 7 7 8 8 8 7 7 7 7 7 7 7 7 8 8 8 8 8 8 8 8 8 8 8 8 8 7 7 6 5 5 3 3 2 3 4 4 4 5 5 5 5 5 6 6 6
7 7 7 8 8 7 7 7 7 7 7 7 7 7 7 7 7 7 6 6 7 7 8 8 8 8 8 9 9 9 9 9 9 8 7 7 6 6 5 3 3 3 3 4 4 4 5 5 5 5 5 6 6 6
7 7 7 7 7 7 7 6 6 6 6 6 6 6 6 6 6 6 6 6 6 7 7 7 7 7 7 8 8 8 9 10 9 8 7 7 6 5 4 3 2 3 3 4 4 4 4 5 5 5 5 6 6 6
7 7 7 7 6 6 6 6 6 6 6 6 5 5 5 5 5 4 5 5 6 6 7 7 7 7 6 7 8 8 9 9 9 8 7 6 6 4 3 3 2 3 4 4 5 5 4 4 4 5 5 6 6 6
7 7 7 6 6 6 6 6 6 6 5 4 4 4 3 3 3 3 4 5 6 6 6 7 7 7 7 7 8 8 8 8 7 6 5 5 4 4 3 3 3 4 4 5 6 6 5 5 5 5 5 6 6 7
7 7 6 6 6 6 6 6 5 5 4 3 2 2 2 2 3 4 5 5 6 6 6 6 7 7 7 7 8 8 7 6 5 4 3 3 3 3 3 3 4 4 5 6 6 6 6 6 6 6 6 6 6 7
6 6 6 5 5 5 5 4 4 3 2 2 1 1 1 2 3 5 5 5 6 6 6 7 7 7 7 7 7 7 7 6 4 3 2 2 2 2 3 4 4 5 6 6 6 6 6 6 6 6 6 6 6 6
6 5 5 5 4 4 3 3 3 3 2 1 1 1 1 2 3 4 5 6 6 6 7 7 7 8 8 8 8 8 7 7 5 4 3 3 3 3 3 4 5 6 6 6 6 6 6 6 6 6 6 6 6 6
5 5 5 4 4 3 3 2 2 2 2 1 1 1 1 2 2 4 6 6 6 6 7 8 8 9 9 10 10 10 10 9 8 7 5 5 4 4 5 5 6 6 6 6 6 6 6 6 5 5 6 6 6 6
5 5 5 4 4 3 2 2 2 2 2 1 1 2 2 2 2 4 6 7 7 6 7 8 9 10 10 11 11 11 11 10 10 8 7 6 5 5 5 5 6 6 6 6 6 6 6 5 5 5 6 6 6 6